Location: Fontevrault
(47.1823°N, 0.0493°E)
Time: 04:15:25
(UTC+00:00)

Cosmos 1459 Rocket - Pass Details

Date: 18 October 2021
Orbit: 936 x 1000 km, 83.0° (Epoch: 01 December)

Event Time Altitude Azimuth Distance (km) Brightness Sun altitude
Exits shadow 19:38:57 19° 30° (NNE) 2,104 5.6 -26.5°
Drops below altitude 10° 19:40:45 10° 21° (NNE) 2,700 6.2 -26.8°
Sets 19:43:21 0° 15° (NNE) 3,642 7.0 -27.2°
